TimePDT,TemperatureF,Dew PointF,Humidity,Sea Level PressureIn,VisibilityMPH,Wind Direction,Wind SpeedMPH,Gust SpeedMPH,PrecipitationIn,Events,Conditions,WindDirDegrees,DateUTC
12:52 AM,36.0,19.0,50,30.00,10.0,NE,12.7,25.3,N/A,,Clear,40,2013-04-09 07:52:00
1:52 AM,35.1,17.1,48,29.99,10.0,NE,9.2,23.0,N/A,,Clear,50,2013-04-09 08:52:00
2:52 AM,35.1,18.0,50,29.96,10.0,NNE,9.2,26.5,N/A,,Clear,30,2013-04-09 09:52:00
3:52 AM,34.0,18.0,52,29.97,10.0,NE,6.9,17.3,N/A,,Clear,50,2013-04-09 10:52:00
4:52 AM,34.0,17.1,50,29.97,10.0,ENE,8.1,17.3,N/A,,Clear,60,2013-04-09 11:52:00
5:52 AM,33.1,18.0,54,30.00,10.0,Variable,4.6,-,N/A,,Clear,0,2013-04-09 12:52:00
6:52 AM,33.1,18.0,54,30.01,10.0,ENE,10.4,23.0,N/A,,Clear,60,2013-04-09 13:52:00
7:52 AM,35.1,17.1,48,30.03,10.0,ENE,11.5,25.3,N/A,,Clear,60,2013-04-09 14:52:00
8:52 AM,39.0,16.0,39,30.01,10.0,NE,9.2,19.6,N/A,,Clear,40,2013-04-09 15:52:00
9:52 AM,42.1,14.0,32,30.01,10.0,NNE,12.7,28.8,N/A,,Clear,30,2013-04-09 16:52:00
10:52 AM,45.0,14.0,29,30.04,10.0,ENE,16.1,24.2,N/A,,Clear,60,2013-04-09 17:52:00
11:52 AM,48.0,15.1,27,30.04,10.0,NNE,9.2,24.2,N/A,,Clear,30,2013-04-09 18:52:00
12:52 PM,50.0,16.0,26,30.05,10.0,North,10.4,21.9,N/A,,Clear,10,2013-04-09 19:52:00
1:52 PM,52.0,12.9,21,30.05,10.0,NE,8.1,21.9,N/A,,Clear,40,2013-04-09 20:52:00
2:52 PM,52.0,6.1,16,30.06,10.0,NE,13.8,27.6,N/A,,Clear,40,2013-04-09 21:52:00
3:52 PM,53.1,8.1,16,30.07,10.0,ENE,8.1,24.2,N/A,,Clear,60,2013-04-09 22:52:00
4:52 PM,54.0,14.0,21,30.08,10.0,NNE,8.1,18.4,N/A,,Clear,30,2013-04-09 23:52:00
5:52 PM,53.1,15.1,22,30.09,10.0,North,8.1,16.1,N/A,,Clear,350,2013-04-10 00:52:00
6:52 PM,51.1,16.0,25,30.12,10.0,NNE,11.5,18.4,N/A,,Clear,30,2013-04-10 01:52:00
7:52 PM,48.0,17.1,29,30.13,10.0,NNE,5.8,-,N/A,,Clear,20,2013-04-10 02:52:00
8:52 PM,48.0,17.1,29,30.13,10.0,Variable,6.9,23.0,N/A,,Clear,0,2013-04-10 03:52:00
9:52 PM,46.0,18.0,33,30.14,10.0,NE,9.2,-,N/A,,Clear,40,2013-04-10 04:52:00
10:52 PM,46.9,18.0,32,30.11,10.0,NNE,11.5,23.0,N/A,,Clear,30,2013-04-10 05:52:00
11:52 PM,48.0,19.9,33,30.09,10.0,NE,16.1,27.6,N/A,,Clear,40,2013-04-10 06:52:00